Simultaneous Nadir Overpasses (SNOs) Predictions

Prediction of SNOs between LANDSAT-8 and NOAA-19 Satellite Orbit:

Table of predicted SNOs for the next 14.0 days since TLE Epoch: 12/14/2024
Index Date (LANDSAT-8) Time (LANDSAT-8) Lat,Lon (LANDSAT-8) SZA (LANDSAT-8 ) Date (NOAA-19) Time (NOAA-19) Lat,Lon (NOAA-19) SZA (NOAA-19 ) Distance(km) Time Diff (sec)
1 12/15/2024 13:55:12 80.07, -0.64 104.53 12/15/2024 13:54:12 80.07, -0.73 104.49 1.90 60
2 12/15/2024 14:44:36 -80.17, 167.90 75.32 12/15/2024 14:45:03 -80.16, 167.78 75.33 2.66 27
3 12/17/2024 21:07:49 -80.12, 71.59 75.35 12/17/2024 21:07:31 -80.11, 71.51 75.37 1.77 18
4 12/20/2024 03:31:02 -80.04, -24.86 75.45 12/20/2024 03:29:59 -80.05, -24.81 75.46 1.21 63
5 12/20/2024 04:20:25 80.14, 143.64 104.71 12/20/2024 04:20:56 80.15, 143.73 104.74 1.86 31
6 12/22/2024 10:43:36 80.11, 47.61 104.65 12/22/2024 10:43:22 80.12, 47.78 104.66 3.29 14
7 12/22/2024 11:32:42 -80.77,-138.08 74.23 12/22/2024 11:33:56 -80.59,-137.56 74.31 22.07 74
8 12/24/2024 17:06:48 80.03, -48.87 104.46 12/24/2024 17:05:50 80.03, -48.87 104.44 0.18 58
9 12/24/2024 17:56:13 -80.11, 119.42 75.43 12/24/2024 17:56:44 -80.11, 119.35 75.42 1.35 31



Historial Predications of SNOs between LANDSAT-8 and NOAA-19
